Weather History for Sheridan, WY

Change the Weather History Date:

Thursday, December 6, 2012

  Actual Average Record
Temperature  
Mean Temperature 35 °F 24 °F  
Max Temperature 40 °F 36 °F 73 °F (1939)
Min Temperature 29 °F 12 °F -28 °F (1972)
Degree Days  
Heating Degree Days 30 41  
Month to date heating degree days 154 243  
Since 1 July heating degree days 1838 2121  
Cooling Degree Days 0 0  
Month to date cooling degree days 0 0  
Year to date cooling degree days 664 419  
Moisture  
Dew Point 23 °F    
Average Humidity 70    
Maximum Humidity 100    
Minimum Humidity 40    
Precipitation  
Precipitation 0.25 in 0.02 in 0.37 in (1971)
Month to date precipitation 0.25 0.12  
Year to date precipitation 9.28 13.72  
Sea Level Pressure  
Sea Level Pressure 29.99 in    
Wind  
Wind Speed 6 mph (North)    
Max Wind Speed 16 mph    
Max Gust Speed 22 mph    
Visibility 7 miles    
Events Fog , Snow    
T = Trace of Precipitation, MM = Missing Value Source: NWS Daily Summary

Daily Weather History Graph

Daily Weather History Graph

Search for Another Location

Airport:

Trip Planner

Search our weather history database for the weather conditions in past years. The results will help you decide how hot, cold, wet, or windy it might be!

Date:

Astronomy

Dec. 06, 2012 Rise Set
Actual Time 7:31 AM MST 4:27 PM MST
Civil Twilight 6:57 AM MST 5:00 PM MST
Nautical Twilight 6:20 AM MST 5:37 PM MST
Astronomical Twilight 5:45 AM MST 6:12 PM MST
Moon No Moon Rise 12:10 PM MST (12/6)
Length of Visible Light 10h 02m
Length of Day
8h 56m
Waning Gibbous, 48% of the Moon is Illuminated
Dec 6
Waning Gibbous
Dec 13
New
Dec 19
First Quarter
Dec 28
Full
Jan 4
Last Quarter

Hourly Weather History & Observations

Time (MST) Temp. Windchill Dew Point Humidity Pressure Visibility Wind Dir Wind Speed Gust Speed Precip Events Conditions
12:53 AM 35.1 °F 31.0 °F 21.9 °F 59% 30.10 in 10.0 mi North 4.6 mph - N/A   Overcast
1:53 AM 33.1 °F 26.1 °F 23.0 °F 66% 30.09 in 10.0 mi WSW 8.1 mph - 0.00 in   Overcast
2:53 AM 30.9 °F 24.3 °F 23.0 °F 72% 30.10 in 10.0 mi WNW 6.9 mph - N/A   Overcast
3:53 AM 30.9 °F 26.2 °F 24.1 °F 76% 30.10 in 10.0 mi North 4.6 mph - N/A   Overcast
4:53 AM 30.0 °F 25.2 °F 25.0 °F 82% 30.11 in 10.0 mi WSW 4.6 mph - N/A   Overcast
5:53 AM 30.0 °F 25.2 °F 24.1 °F 79% 30.09 in 10.0 mi WNW 4.6 mph - N/A   Overcast
6:53 AM 28.9 °F 21.9 °F 24.1 °F 82% 30.08 in 10.0 mi SSW 6.9 mph - N/A   Mostly Cloudy
7:53 AM 28.9 °F - 23.0 °F 78% 30.08 in 10.0 mi Calm Calm - N/A   Clear
8:53 AM 32.0 °F 28.7 °F 21.9 °F 66% 30.06 in 10.0 mi SSE 3.5 mph - N/A   Clear
9:53 AM 36.0 °F 28.0 °F 18.0 °F 48% 30.04 in 10.0 mi SE 11.5 mph - N/A   Clear
10:53 AM 37.9 °F 30.5 °F 15.1 °F 39% 30.03 in 10.0 mi ESE 11.5 mph - N/A   Clear
11:53 AM 39.9 °F 32.9 °F 18.0 °F 41% 29.99 in 10.0 mi SE 11.5 mph - N/A   Clear
12:53 PM 39.0 °F 34.0 °F 19.0 °F 45% 29.97 in 10.0 mi SE 6.9 mph - N/A   Partly Cloudy
1:53 PM 39.9 °F 35.1 °F 18.0 °F 41% 29.95 in 10.0 mi SE 6.9 mph - N/A   Clear
2:53 PM 37.9 °F 34.4 °F 18.0 °F 45% 29.95 in 10.0 mi SSE 4.6 mph - N/A   Clear
3:53 PM 37.0 °F 34.5 °F 19.0 °F 48% 29.95 in 10.0 mi ESE 3.5 mph - N/A   Partly Cloudy
4:53 PM 34.0 °F - 19.0 °F 54% 29.96 in 10.0 mi Calm Calm - N/A   Mostly Cloudy
5:53 PM 33.1 °F 27.7 °F 23.0 °F 66% 29.98 in 10.0 mi NW 5.8 mph - N/A   Overcast
6:53 PM 34.0 °F 31.0 °F 21.0 °F 59% 29.98 in 10.0 mi North 3.5 mph - N/A   Overcast
7:53 PM 32.0 °F 26.4 °F 25.0 °F 75% 29.98 in 10.0 mi North 5.8 mph - 0.00 in   Overcast
8:18 PM 30.2 °F 22.6 °F 26.6 °F 86% 29.89 in 2.5 mi NNE 8.1 mph - 0.00 in Snow Light Snow
8:31 PM 30.2 °F 23.4 °F 26.6 °F 86% 29.88 in 1.5 mi NNE 6.9 mph - 0.00 in Snow Light Snow
8:48 PM 30.2 °F 24.3 °F 28.4 °F 93% 29.88 in 1.8 mi NNE 5.8 mph - 0.00 in Snow Light Snow
8:53 PM 30.0 °F 23.2 °F 28.0 °F 92% 29.98 in 1.5 mi North 6.9 mph - 0.01 in Snow Light Snow
9:11 PM 28.4 °F 20.4 °F 28.4 °F 100% 29.88 in 1.2 mi NNE 8.1 mph - 0.01 in Snow Light Snow
9:21 PM 28.4 °F 22.2 °F 28.4 °F 100% 29.88 in 1.0 mi North 5.8 mph - 0.02 in Snow Light Snow
9:36 PM 28.4 °F 21.2 °F 28.4 °F 100% 29.88 in 0.5 mi North 6.9 mph - 0.03 in Fog , Snow Snow
9:53 PM 28.9 °F 22.8 °F 28.0 °F 96% 29.96 in 0.5 mi North 5.8 mph - 0.07 in Fog , Snow Snow
10:09 PM 28.4 °F 23.3 °F 28.4 °F 100% 29.88 in 0.8 mi North 4.6 mph - 0.02 in Snow Light Snow
10:53 PM 28.9 °F 23.9 °F 28.0 °F 96% 29.96 in 0.8 mi NW 4.6 mph - 0.08 in Snow Light Snow
11:11 PM 28.4 °F 24.6 °F 28.4 °F 100% 29.87 in 0.5 mi NNW 3.5 mph - 0.03 in Fog , Snow Snow
11:53 PM 28.9 °F 21.9 °F 27.0 °F 92% 29.95 in 0.8 mi WNW 6.9 mph - 0.09 in Snow Light Snow